Buffalo, WY

11:42 AM MDT on July 28, 2016 (GMT -0600)
Johnson County

Weather History for KBYG - November, 2011

Change the Weather History Date:

Wednesday, November 9, 2011

  Actual Average Record
Temperature  
Mean Temperature 34 °F 37 °F  
Max Temperature 41 °F 48 °F 71 °F (2001)
Min Temperature 26 °F 26 °F 1 °F (2000)
Degree Days  
Heating Degree Days 32 28  
Month to date heating degree days 234  
Since 1 July heating degree days 1140  
Cooling Degree Days 0 0  
Month to date cooling degree days 0  
Year to date cooling degree days 492  
Moisture  
Dew Point 14 °F    
Average Humidity 48    
Maximum Humidity 63    
Minimum Humidity 35    
Precipitation  
Precipitation 0.00 in 0.02 in 0.21 in (2012)
Month to date precipitation 0.14  
Year to date precipitation 12.65  
Sea Level Pressure  
Sea Level Pressure 30.42 in    
Wind  
Wind Speed 5 mph (West)    
Max Wind Speed 8 mph    
Max Gust Speed -    
Visibility 10 miles    
Events      
T = Trace of Precipitation, MM = Missing Value Source: NWS Daily Summary

Daily Weather History Graph

Daily Weather History Graph

Search for Another Location

Airport or City:

Trip Planner

Search our weather history database for the weather conditions in past years. The results will help you decide how hot, cold, wet, or windy it might be!

Date:

Astronomy

Nov. 09, 2011 Rise Set
Actual Time 6:54 AM MST 4:46 PM MST
Civil Twilight 6:23 AM MST 5:17 PM MST
Nautical Twilight 5:48 AM MST 5:51 PM MST
Astronomical Twilight 5:14 AM MST 6:25 PM MST
Moon 3:59 PM MST (11/9) 5:52 AM MST (11/9)
Length of Visible Light 10h 53m
Length of Day
9h 51m
Waxing Gibbous, 99% of the Moon is Illuminated
Nov 9
Waxing Gibbous
Nov 10
Full
Nov 18
Last Quarter
Nov 24
New
Dec 2
First Quarter

Hourly Weather History & Observations

Time (MST) Temp. Windchill Dew Point Humidity Pressure Visibility Wind Dir Wind Speed Gust Speed Precip Events Conditions
12:53 AM 33.1 °F 27.7 °F 10.0 °F 38% 30.35 in 10.0 mi West 5.8 mph - N/A   Overcast
1:53 AM 33.1 °F 26.1 °F 10.9 °F 40% 30.36 in 10.0 mi WNW 8.1 mph - N/A   Overcast
2:53 AM 30.9 °F 24.3 °F 12.0 °F 46% 30.38 in 10.0 mi NNE 6.9 mph - N/A   Overcast
3:53 AM 30.0 °F 25.2 °F 14.0 °F 51% 30.40 in 10.0 mi West 4.6 mph - N/A   Overcast
4:53 AM 26.1 °F 19.4 °F 12.9 °F 58% 30.45 in 10.0 mi West 5.8 mph - N/A   Mostly Cloudy
5:53 AM 28.9 °F 23.9 °F 12.9 °F 51% 30.46 in 10.0 mi NNW 4.6 mph - N/A   Scattered Clouds
7:53 AM 28.9 °F - 15.1 °F 56% 30.51 in 10.0 mi Calm Calm - N/A   Clear
8:53 AM 34.0 °F 29.8 °F 16.0 °F 48% 30.52 in 10.0 mi West 4.6 mph - N/A   Clear
9:53 AM 36.0 °F 33.3 °F 15.1 °F 43% 30.51 in 10.0 mi South 3.5 mph - N/A   Clear
10:53 AM 39.0 °F 34.0 °F 17.1 °F 41% 30.49 in 10.0 mi North 6.9 mph - N/A   Clear
11:53 AM 39.0 °F 34.0 °F 16.0 °F 39% 30.46 in 10.0 mi North 6.9 mph - N/A   Clear
12:53 PM 39.9 °F 37.8 °F 16.0 °F 38% 30.43 in 10.0 mi WNW 3.5 mph - N/A   Clear
1:53 PM 41.0 °F 36.4 °F 17.1 °F 38% 30.41 in 10.0 mi NNW 6.9 mph - N/A   Clear
2:53 PM 41.0 °F 39.0 °F 15.1 °F 35% 30.40 in 10.0 mi South 3.5 mph - N/A   Clear
3:53 PM 39.0 °F - 14.0 °F 36% 30.40 in 10.0 mi Calm Calm - N/A   Clear
4:53 PM 35.1 °F - 17.1 °F 48% 30.42 in 10.0 mi Calm Calm - N/A   Clear
5:53 PM 26.1 °F 20.5 °F 15.1 °F 63% 30.43 in 10.0 mi West 4.6 mph - N/A   Clear
6:53 PM 30.0 °F 25.2 °F 15.1 °F 54% 30.42 in 10.0 mi WSW 4.6 mph - N/A   Clear
7:53 PM 28.0 °F 24.2 °F 15.1 °F 58% 30.41 in 10.0 mi SW 3.5 mph - N/A   Clear
8:53 PM 26.1 °F 21.9 °F 14.0 °F 60% 30.40 in 10.0 mi WSW 3.5 mph - N/A   Clear
9:53 PM 28.0 °F - 14.0 °F 56% 30.38 in 10.0 mi Calm Calm - N/A   Clear
10:53 PM 26.1 °F - 12.9 °F 58% 30.36 in 10.0 mi Calm Calm - N/A   Clear
11:53 PM 26.1 °F 19.4 °F 10.9 °F 53% 30.33 in 10.0 mi South 5.8 mph - N/A   Clear